Wind_Speed
15 15 16 16 17 18 18 18 18 19 19 20 20 21 21 20 20 19 17 17 18 18 19 19 19 20 19 19 16 18 9 18 21 20 24 29 28 27 27 20 18 19 20 11 4 7 3
16 17 17 18 18 19 19 19 20 20 21 22 22 23 22 23 22 22 20 19 19 19 18 19 19 22 23 22 15 24 20 15 19 21 21 28 28 26 23 23 21 18 18 16 23 10 9
18 18 19 20 21 21 22 22 22 23 23 23 24 26 26 26 26 26 24 21 21 20 20 20 20 22 26 14 16 14 20 15 16 18 22 24 25 26 26 24 21 20 21 20 16 15 13
19 19 20 21 21 22 23 23 24 24 25 26 26 27 27 27 27 28 28 25 24 22 22 21 21 22 27 20 23 21 19 19 20 19 21 19 24 24 26 21 22 26 22 23 20 20 16
20 21 21 23 24 25 26 26 26 25 26 27 28 28 30 31 31 30 29 28 26 26 24 23 24 24 25 24 25 21 22 18 21 19 21 19 23 27 25 30 27 28 28 29 24 23 20
21 22 22 24 25 25 25 26 26 27 27 28 29 31 32 32 33 33 31 30 27 27 26 26 27 23 20 17 15 26 25 21 23 21 21 25 26 30 32 35 39 29 28 26 26 27 25
21 22 22 21 23 25 25 26 27 27 28 29 30 31 32 32 34 37 35 26 25 29 26 27 19 25 11 9 18 21 29 25 26 26 29 29 32 45 42 37 34 27 27 29 27 24 31
22 21 21 22 24 24 27 29 30 30 29 29 27 28 30 31 33 35 39 38 35 31 41 31 34 36 29 20 18 21 26 32 34 37 30 29 46 37 32 33 34 34 31 31 27 29 26
21 20 21 23 24 26 28 31 32 31 30 29 28 27 27 29 28 28 25 36 40 40 41 48 33 38 28 32 32 23 31 36 38 39 38 43 29 31 33 35 36 39 37 32 29 24 27
20 19 21 23 25 27 29 31 33 33 30 29 28 28 27 24 28 28 25 31 34 31 25 33 19 18 34 35 40 30 32 37 36 42 40 38 34 29 36 37 36 39 36 33 31 29 30
20 21 23 24 24 24 29 34 36 35 31 29 27 27 28 26 28 27 30 28 23 21 8 7 9 8 7 41 10 41 34 37 41 36 43 47 34 36 34 40 34 37 31 33 32 32 28
22 22 22 23 25 28 29 32 35 38 38 33 27 27 25 24 25 25 25 19 14 7 9 10 4 13 8 25 35 8 39 39 37 36 37 42 34 34 32 28 32 29 28 30 32 32 27
24 23 24 25 26 29 31 33 34 36 38 39 32 28 25 19 21 21 17 14 10 12 14 22 27 22 15 13 27 32 33 46 49 47 44 38 44 37 35 29 30 31 31 23 21 24 17
25 26 27 28 29 31 32 33 32 33 38 38 36 34 27 22 20 17 13 11 11 14 24 25 28 30 20 16 16 30 33 44 46 45 36 39 39 48 37 42 35 39 40 26 21 18 18
26 27 29 29 29 30 31 32 32 32 33 36 41 33 13 13 23 15 10 12 10 14 19 26 29 20 20 18 16 21 39 43 46 49 51 42 44 36 43 35 40 38 46 39 30 29 23
27 28 29 30 32 31 31 33 34 34 34 36 45 24 3 17 28 8 8 17 18 16 21 22 23 26 29 30 30 25 15 37 38 41 45 44 28 39 38 37 38 44 38 35 37 21 20
27 29 30 32 33 33 32 34 37 38 36 36 42 16 14 26 12 10 14 17 19 22 23 23 24 26 26 27 25 27 14 3 4 21 40 47 43 33 38 49 46 41 39 40 33 32 15
29 30 32 32 33 34 34 36 38 40 41 34 39 19 15 18 16 9 14 17 20 19 17 20 18 19 17 22 24 23 18 16 15 14 18 37 45 43 39 45 42 42 45 40 30 33 32
29 31 32 33 33 34 36 37 37 38 39 40 39 21 7 17 13 17 17 20 17 17 11 16 16 19 21 21 19 13 24 12 17 12 8 15 33 36 38 36 46 51 45 44 37 33 32
30 32 33 33 33 34 36 38 37 37 38 35 38 20 11 9 10 16 19 18 16 14 13 13 14 16 20 20 17 17 22 18 20 17 15 16 20 36 27 37 34 45 45 43 42 39 30
31 32 32 32 32 34 36 38 38 38 38 38 28 18 15 13 14 17 15 16 18 19 19 14 14 18 15 19 17 18 19 24 14 12 8 7 17 23 37 35 25 40 42 43 50 38 39
32 31 32 31 32 33 35 35 37 39 38 38 34 26 18 18 13 15 15 15 16 17 19 19 19 16 16 18 16 16 19 19 12 14 15 6 10 15 28 28 24 20 41 43 44 42 35
31 31 32 31 31 33 33 34 35 37 39 38 37 19 20 20 17 14 12 15 17 18 17 15 20 19 20 20 18 17 18 23 22 20 14 8 7 9 27 21 25 27 21 40 41 41 35
30 31 32 31 31 32 32 32 34 35 36 36 35 23 25 26 16 16 19 18 15 17 19 17 15 19 18 22 20 19 19 21 22 18 9 9 10 9 17 14 17 23 21 20 20 38 37
30 32 33 32 31 31 31 32 33 33 32 33 32 22 22 29 22 19 20 24 20 15 15 20 19 21 16 17 20 19 18 16 22 20 14 9 9 9 7 12 11 14 17 27 19 18 22
30 32 33 31 30 30 31 32 32 31 30 32 31 22 20 26 22 20 18 21 18 12 12 12 17 14 13 11 14 16 15 9 15 22 16 13 12 9 8 10 11 12 17 14 23 21 12
33 33 31 29 28 29 29 30 28 29 31 33 30 24 20 27 18 21 22 18 13 11 15 11 13 12 8 8 9 9 16 10 8 20 23 20 16 17 14 9 9 4 12 12 16 7 10
32 30 28 27 26 27 27 27 28 30 30 30 26 19 20 25 24 13 17 18 12 10 13 14 12 11 7 7 6 6 8 7 8 9 4 21 23 22 21 22 18 14 4 8 7 12 14
29 27 25 25 26 25 26 29 29 28 25 24 23 15 18 19 20 20 16 14 11 5 9 9 12 9 8 10 11 7 14 11 13 9 5 14 9 15 23 30 22 11 8 2 3 7 9
Wind_Direction
9 4 0 357 354 351 348 345 341 337 332 328 325 321 319 318 315 311 306 300 294 288 284 281 275 271 269 260 248 261 234 225 220 215 208 200 205 207 216 220 225 231 237 230 211 144 163
7 3 359 355 351 347 344 340 336 332 328 324 318 314 311 309 307 304 302 299 294 290 285 279 273 267 263 263 257 249 251 236 227 221 215 204 207 207 221 222 225 228 238 247 240 223 210
8 3 359 356 354 351 348 346 343 338 333 329 323 318 314 308 303 299 296 293 290 287 284 280 273 266 261 264 254 244 256 231 222 220 216 209 202 209 214 226 223 237 241 247 237 220 215
10 8 5 1 357 353 350 346 344 340 336 333 329 324 319 313 307 301 295 289 285 282 279 277 274 267 262 258 245 248 247 233 217 215 208 204 207 216 219 222 234 234 233 236 227 218 218
15 10 5 358 353 350 349 350 351 351 351 349 344 339 332 325 318 309 301 293 284 277 273 271 269 267 269 252 248 243 239 228 215 214 203 196 212 215 217 221 231 228 231 231 231 217 211
11 4 358 355 357 1 2 1 358 356 355 352 349 346 344 344 341 331 315 301 293 281 268 266 262 264 263 259 244 230 229 214 204 203 205 201 211 214 216 214 221 219 221 226 226 210 211
5 1 1 5 2 357 355 353 351 350 349 348 346 346 344 347 346 347 338 333 306 300 269 253 236 237 193 257 234 227 221 206 197 206 206 205 205 212 212 215 219 223 224 223 225 221 209
2 4 3 357 352 350 349 346 344 343 342 342 340 340 340 340 345 344 348 349 346 316 287 260 249 249 228 193 235 230 205 200 197 206 204 206 217 215 215 220 219 222 232 230 228 223 209
0 359 354 350 349 348 347 343 339 334 333 334 334 336 339 336 345 347 348 342 337 329 306 278 263 251 236 223 223 220 207 202 203 204 206 209 222 213 214 217 219 221 225 230 231 228 210
356 353 352 355 356 355 355 351 344 336 331 332 331 332 334 339 340 342 341 339 339 326 311 301 266 268 224 220 233 209 217 204 206 210 210 219 215 211 213 218 215 222 219 227 235 234 218
352 353 356 357 358 358 354 351 350 350 342 331 332 333 335 337 340 344 342 344 342 332 296 35 155 235 236 212 243 219 206 203 206 210 208 218 214 215 214 216 214 223 219 223 233 245 246
350 347 348 347 339 342 345 346 349 351 350 344 335 335 336 335 341 344 348 344 345 283 246 358 81 358 258 225 222 240 211 212 212 214 218 222 221 217 218 219 216 217 220 221 224 236 246
348 342 338 335 336 339 341 343 345 346 352 351 340 335 333 334 343 353 350 358 318 252 293 329 330 328 305 256 235 228 209 204 205 211 218 218 222 220 216 217 212 210 211 214 219 216 231
348 345 342 338 338 341 342 341 343 344 347 350 345 333 333 340 352 342 341 336 281 286 306 317 322 316 301 296 274 231 218 212 213 213 213 213 217 213 213 215 210 208 207 212 212 219 222
346 347 345 346 347 346 346 346 347 346 351 352 352 339 325 314 335 336 335 305 334 323 311 321 324 307 315 338 311 272 223 217 216 211 216 215 226 215 216 215 210 206 215 214 224 225 229
344 343 343 346 346 347 347 345 345 348 347 349 351 352 7 269 326 336 311 296 298 310 304 312 305 296 303 312 317 329 262 224 222 221 220 228 233 220 215 213 217 217 211 215 226 243 232
339 338 341 344 345 345 348 343 342 344 348 347 358 354 290 300 322 311 281 306 308 302 305 299 294 296 295 308 303 308 283 273 187 224 222 226 235 232 215 208 211 209 214 214 223 231 241
335 335 338 340 342 342 343 342 345 344 344 345 349 331 304 333 329 311 312 322 312 304 296 296 291 287 307 301 306 304 305 293 340 319 247 219 228 242 239 216 214 213 213 209 219 219 240
333 333 335 337 339 339 337 337 346 345 345 345 345 342 309 323 328 325 314 311 311 320 304 308 298 290 302 302 303 287 305 285 331 326 285 213 224 227 238 230 206 210 212 216 215 223 224
330 332 333 336 338 337 333 335 343 344 344 346 345 337 306 332 322 325 318 318 310 312 307 330 317 298 295 298 285 276 307 302 322 327 278 244 233 229 221 221 216 199 212 211 217 212 224
326 328 330 336 338 335 333 335 340 341 343 344 347 334 304 308 319 321 316 307 310 311 304 305 299 292 300 312 315 294 296 318 304 356 347 255 243 231 226 226 216 205 209 211 213 215 217
325 326 328 333 333 332 333 335 338 338 341 341 340 337 304 303 308 309 302 309 305 315 308 313 295 297 299 302 305 313 311 313 314 353 348 314 233 240 242 246 248 253 205 211 211 215 214
325 326 326 330 328 328 331 334 335 336 336 338 335 338 313 307 296 303 305 305 304 299 296 292 302 305 296 298 304 296 295 289 288 305 321 340 338 273 253 235 232 246 220 209 213 209 213
328 326 325 327 325 326 329 331 333 334 333 332 331 331 313 308 285 284 297 296 298 300 293 291 287 280 279 301 301 291 282 276 266 272 274 289 299 288 264 256 243 230 222 222 218 213 211
331 326 324 326 324 324 326 329 331 332 330 330 329 323 305 305 306 292 288 293 301 292 295 294 286 300 331 298 294 294 280 254 242 253 250 250 267 286 271 234 227 221 218 212 218 207 208
332 329 329 330 325 322 324 327 330 329 329 328 330 321 302 304 324 318 297 303 313 325 314 307 330 315 298 287 285 276 262 264 225 229 237 237 242 247 266 278 220 237 219 189 210 230 236
330 331 332 331 327 326 328 329 331 328 328 327 328 323 297 297 316 313 309 307 311 306 309 316 317 311 291 269 289 269 256 296 268 205 207 214 220 226 234 258 257 125 75 162 190 175 176
330 333 331 333 332 333 335 333 330 329 328 324 327 324 306 302 323 305 316 305 307 296 306 307 331 17 289 334 305 331 313 325 299 282 278 199 204 221 225 235 238 45 51 94 114 185 164
330 332 332 335 339 340 335 332 335 331 327 325 330 322 305 306 322 321 305 302 271 258 283 306 300 303 332 337 342 331 320 308 310 288 231 262 266 236 223 227 240 264 249 198 349 345 216
Height
3165 3162 3159 3157 3154 3151 3148 3145 3142 3139 3137 3134 3131 3127 3125 3123 3120 3119 3117 3115 3113 3111 3110 3109 3108 3106 3106 3106 3107 3106 3108 3109 3111 3113 3115 3119 3125 3132 3135 3140 3144 3144 3143 3145 3146 3146 3146
3165 3162 3159 3156 3153 3150 3147 3144 3141 3138 3134 3131 3128 3125 3122 3119 3117 3114 3113 3111 3109 3107 3106 3105 3105 3103 3102 3101 3104 3102 3104 3107 3108 3111 3113 3116 3124 3131 3136 3139 3141 3143 3144 3143 3143 3148 3150
3165 3162 3158 3155 3152 3149 3145 3142 3139 3135 3132 3128 3124 3120 3118 3115 3112 3109 3107 3106 3104 3103 3101 3100 3100 3098 3097 3101 3100 3101 3100 3104 3106 3108 3110 3115 3124 3130 3134 3137 3139 3141 3142 3142 3143 3146 3148
3165 3162 3158 3155 3151 3148 3144 3140 3136 3132 3128 3125 3120 3117 3113 3110 3106 3104 3101 3099 3098 3097 3096 3095 3094 3092 3090 3095 3095 3097 3098 3099 3103 3106 3108 3114 3122 3128 3132 3136 3137 3137 3139 3138 3139 3143 3145
3165 3162 3158 3154 3150 3147 3143 3138 3134 3130 3126 3122 3117 3113 3108 3104 3101 3097 3094 3092 3091 3090 3089 3089 3088 3087 3086 3088 3089 3093 3094 3096 3100 3104 3106 3114 3120 3123 3129 3130 3132 3130 3131 3133 3135 3138 3142
3166 3162 3157 3153 3149 3145 3141 3137 3133 3129 3125 3120 3115 3110 3105 3101 3096 3091 3088 3084 3082 3081 3082 3082 3081 3084 3083 3083 3083 3086 3090 3093 3097 3103 3106 3110 3115 3118 3120 3121 3117 3124 3128 3129 3131 3134 3138
3165 3161 3157 3153 3149 3144 3140 3136 3132 3128 3123 3119 3113 3108 3102 3098 3092 3086 3082 3079 3079 3074 3072 3073 3072 3071 3074 3078 3078 3080 3084 3089 3096 3100 3100 3105 3108 3100 3107 3114 3120 3123 3124 3125 3125 3128 3130
3164 3160 3156 3152 3148 3143 3138 3134 3129 3125 3121 3116 3112 3106 3100 3095 3090 3084 3078 3076 3074 3069 3053 3062 3062 3060 3067 3070 3075 3074 3078 3083 3087 3090 3098 3103 3090 3100 3109 3113 3116 3118 3118 3118 3121 3122 3127
3163 3159 3156 3152 3148 3143 3138 3133 3128 3123 3118 3113 3109 3104 3099 3092 3089 3085 3080 3075 3071 3065 3051 3037 3050 3050 3059 3062 3061 3069 3070 3074 3079 3085 3087 3087 3087 3099 3102 3106 3109 3111 3113 3115 3116 3118 3122
3163 3160 3156 3152 3147 3142 3138 3133 3126 3120 3114 3110 3104 3099 3094 3090 3086 3081 3079 3074 3068 3062 3050 3032 3036 3040 3045 3052 3049 3060 3063 3070 3075 3075 3082 3084 3090 3091 3095 3098 3103 3104 3111 3114 3113 3113 3114
3163 3159 3154 3150 3146 3142 3137 3131 3125 3118 3111 3106 3100 3096 3091 3085 3082 3078 3074 3069 3066 3064 3061 3042 3043 3040 3042 3038 3050 3046 3059 3062 3064 3068 3078 3071 3079 3084 3087 3089 3097 3100 3107 3111 3112 3111 3111
3162 3157 3153 3149 3146 3141 3135 3129 3123 3117 3109 3102 3096 3091 3087 3083 3077 3073 3069 3067 3065 3069 3052 3045 3044 3041 3044 3043 3043 3047 3048 3056 3063 3067 3068 3071 3077 3080 3083 3088 3092 3099 3103 3106 3109 3110 3103
3161 3156 3152 3148 3143 3137 3131 3125 3119 3112 3105 3099 3092 3087 3082 3077 3075 3070 3067 3066 3071 3065 3053 3046 3040 3039 3035 3037 3042 3042 3045 3047 3047 3056 3054 3065 3066 3073 3077 3082 3087 3092 3096 3097 3097 3095 3093
3158 3154 3150 3145 3140 3134 3129 3122 3116 3109 3101 3096 3089 3081 3077 3073 3070 3068 3066 3069 3066 3059 3057 3051 3045 3039 3039 3037 3033 3037 3040 3040 3044 3048 3055 3053 3056 3057 3066 3070 3077 3081 3085 3083 3086 3087 3093
3157 3153 3148 3143 3137 3131 3125 3119 3113 3106 3099 3091 3085 3078 3072 3072 3070 3066 3068 3066 3060 3059 3057 3052 3047 3041 3037 3033 3031 3032 3029 3030 3036 3041 3042 3046 3045 3057 3060 3067 3072 3075 3073 3084 3085 3085 3086
3155 3150 3145 3140 3135 3128 3122 3116 3109 3104 3096 3089 3080 3075 3070 3070 3068 3065 3067 3063 3060 3058 3056 3054 3050 3048 3042 3037 3034 3030 3022 3027 3032 3036 3042 3038 3045 3046 3051 3062 3063 3063 3076 3081 3080 3078 3075
3153 3148 3143 3138 3132 3125 3120 3113 3105 3098 3094 3087 3080 3077 3072 3069 3066 3066 3062 3059 3055 3055 3055 3052 3048 3044 3043 3037 3038 3034 3026 3018 3020 3028 3034 3038 3039 3038 3045 3043 3049 3059 3064 3071 3077 3075 3070
3150 3145 3140 3134 3128 3123 3116 3110 3103 3094 3087 3084 3076 3075 3073 3067 3065 3063 3059 3057 3056 3050 3049 3046 3044 3043 3040 3038 3036 3033 3026 3021 3017 3021 3021 3027 3031 3032 3029 3036 3046 3053 3057 3062 3064 3069 3068
3147 3142 3137 3130 3125 3119 3112 3106 3101 3093 3085 3077 3074 3070 3072 3067 3065 3062 3059 3056 3053 3047 3047 3043 3041 3039 3039 3036 3035 3029 3021 3017 3017 3017 3017 3017 3016 3023 3027 3029 3032 3038 3048 3056 3063 3068 3065
3144 3139 3133 3127 3122 3116 3108 3103 3098 3092 3084 3079 3071 3068 3066 3065 3064 3061 3057 3054 3050 3049 3044 3043 3042 3039 3036 3034 3034 3026 3024 3017 3015 3014 3013 3012 3013 3013 3013 3016 3024 3032 3041 3049 3054 3057 3062
3141 3136 3129 3124 3119 3112 3106 3099 3094 3088 3082 3076 3072 3070 3064 3062 3060 3058 3056 3053 3049 3046 3043 3041 3039 3035 3036 3033 3028 3026 3022 3017 3013 3013 3012 3015 3013 3015 3015 3018 3022 3026 3035 3041 3045 3052 3056
3137 3132 3126 3121 3115 3109 3103 3096 3090 3083 3079 3073 3068 3063 3059 3058 3058 3055 3052 3050 3047 3044 3043 3039 3037 3034 3031 3031 3028 3025 3022 3020 3015 3011 3012 3010 3012 3014 3013 3015 3020 3021 3025 3033 3040 3047 3054
3132 3127 3121 3116 3111 3105 3100 3094 3087 3081 3073 3067 3063 3061 3056 3052 3051 3051 3049 3047 3045 3043 3040 3038 3035 3031 3027 3026 3024 3024 3023 3020 3019 3018 3017 3016 3015 3016 3010 3016 3017 3017 3019 3026 3035 3044 3050
3128 3122 3117 3112 3106 3101 3096 3090 3084 3078 3071 3065 3059 3056 3052 3047 3047 3046 3044 3042 3040 3039 3036 3034 3032 3028 3025 3021 3020 3020 3018 3017 3018 3019 3020 3020 3020 3017 3013 3015 3016 3017 3020 3024 3030 3039 3046
3123 3117 3111 3107 3101 3097 3092 3087 3081 3075 3068 3062 3056 3053 3049 3042 3042 3040 3040 3037 3035 3033 3033 3029 3027 3023 3018 3020 3017 3015 3013 3014 3016 3016 3018 3021 3022 3019 3016 3017 3017 3017 3019 3022 3027 3033 3043
3118 3112 3107 3102 3096 3091 3087 3082 3077 3070 3065 3058 3054 3049 3045 3041 3038 3036 3035 3033 3030 3028 3029 3028 3024 3023 3022 3019 3016 3013 3007 3007 3007 3012 3015 3019 3022 3024 3021 3017 3011 3018 3018 3021 3026 3032 3039
3113 3108 3102 3097 3092 3087 3082 3077 3072 3067 3060 3054 3050 3046 3042 3037 3035 3033 3031 3030 3029 3028 3026 3025 3023 3021 3020 3019 3016 3012 3008 3007 3002 3003 3011 3016 3021 3022 3022 3021 3014 3011 3013 3017 3024 3037 3030
3108 3103 3098 3093 3088 3083 3078 3072 3067 3062 3056 3050 3047 3043 3040 3035 3031 3030 3028 3026 3026 3026 3024 3023 3023 3018 3019 3018 3017 3014 3011 3008 3007 3006 3006 3013 3018 3021 3024 3022 3020 3020 3021 3022 3027 3025 3025
3104 3099 3094 3089 3085 3079 3074 3069 3064 3058 3052 3047 3043 3040 3037 3034 3032 3028 3024 3023 3023 3023 3023 3023 3022 3022 3022 3021 3020 3018 3017 3015 3011 3010 3014 3016 3016 3015 3019 3019 3016 3022 3024 3027 3027 3027 3025